�������l�o���
Date,Time,MP-1(��Sv/h),MP-2(��Sv/h),MP-3(��Sv/h),MP-4(��Sv/h),MP-5(��Sv/h),MP-6(��Sv/h),MP-7(��Sv/h),MP-8(��Sv/h),����,����(m/s),���J
2020/03/22,00:00,0.708,1.019,0.675,1.240,0.891,0.404,0.704,0.667,��쐼,4.4,��
2020/03/22,00:10,0.706,1.019,0.676,1.239,0.889,0.403,0.705,0.667,��쐼,4.1,��
2020/03/22,00:20,0.708,1.019,0.675,1.239,0.891,0.405,0.705,0.667,��쐼,4.9,��
2020/03/22,00:30,0.707,1.015,0.676,1.241,0.890,0.404,0.705,0.667,��,4.3,��
2020/03/22,00:40,0.708,1.018,0.676,1.242,0.890,0.404,0.702,0.667,��,4.6,��
2020/03/22,00:50,0.707,1.021,0.676,1.241,0.890,0.406,0.706,0.669,��,4.2,��
2020/03/22,01:00,0.705,1.019,0.676,1.239,0.890,0.402,0.704,0.666,��,4.3,��
2020/03/22,01:10,0.707,1.020,0.673,1.240,0.889,0.404,0.705,0.667,��,5.8,��
2020/03/22,01:20,0.708,1.019,0.677,1.240,0.888,0.404,0.704,0.668,��,6.0,��
2020/03/22,01:30,0.706,1.018,0.676,1.239,0.891,0.405,0.704,0.666,��,5.6,��
2020/03/22,01:40,0.705,1.020,0.675,1.243,0.891,0.404,0.706,0.667,��쐼,5.2,��
2020/03/22,01:50,0.708,1.019,0.675,1.241,0.890,0.404,0.704,0.667,��,4.4,��
2020/03/22,02:00,0.708,1.019,0.675,1.242,0.890,0.404,0.703,0.668,��,3.7,��
2020/03/22,02:10,0.708,1.018,0.675,1.240,0.890,0.404,0.705,0.668,��쐼,4.0,��
2020/03/22,02:20,0.706,1.018,0.677,1.242,0.891,0.402,0.704,0.666,���쐼,4.2,��
2020/03/22,02:30,0.707,1.019,0.675,1.240,0.890,0.403,0.705,0.668,���쐼,4.7,��
2020/03/22,02:40,0.708,1.019,0.675,1.240,0.890,0.406,0.704,0.666,���쐼,6.2,��
2020/03/22,02:50,0.709,1.020,0.676,1.238,0.889,0.403,0.704,0.665,���쐼,4.4,��
2020/03/22,03:00,0.709,1.019,0.676,1.241,0.891,0.403,0.704,0.667,�쐼,3.3,��
2020/03/22,03:10,0.709,1.016,0.675,1.243,0.892,0.402,0.704,0.667,��,3.3,��
2020/03/22,03:20,0.707,1.017,0.676,1.241,0.891,0.403,0.704,0.669,��쐼,3.3,��
2020/03/22,03:30,0.706,1.019,0.677,1.240,0.888,0.404,0.705,0.666,�쐼,3.9,��
2020/03/22,03:40,0.707,1.020,0.675,1.241,0.890,0.402,0.706,0.668,�쐼,3.8,��
2020/03/22,03:50,0.708,1.018,0.676,1.242,0.891,0.404,0.706,0.668,�쐼,3.8,��
2020/03/22,04:00,0.707,1.020,0.676,1.241,0.891,0.403,0.704,0.666,�쐼,3.8,��
2020/03/22,04:10,0.705,1.018,0.676,1.240,0.888,0.404,0.703,0.667,�쐼,3.7,��
2020/03/22,04:20,0.706,1.016,0.675,1.240,0.890,0.402,0.705,0.666,�쐼,2.8,��
2020/03/22,04:30,0.707,1.017,0.673,1.240,0.890,0.402,0.705,0.668,�쐼,2.0,��
2020/03/22,04:40,0.707,1.016,0.675,1.242,0.889,0.404,0.705,0.668,��쐼,2.2,��
2020/03/22,04:50,0.709,1.018,0.677,1.240,0.888,0.402,0.703,0.666,��쐼,3.1,��
2020/03/22,05:00,0.707,1.019,0.675,1.241,0.892,0.402,0.703,0.667,��,3.2,��
2020/03/22,05:10,0.708,1.017,0.676,1.240,0.888,0.403,0.704,0.666,��,2.6,��
2020/03/22,05:20,0.708,1.016,0.675,1.241,0.889,0.404,0.704,0.667,��,3.3,��
2020/03/22,05:30,0.706,1.017,0.676,1.242,0.889,0.403,0.703,0.667,��,3.3,��
2020/03/22,05:40,0.709,1.016,0.675,1.240,0.889,0.404,0.702,0.666,��,3.9,��
2020/03/22,05:50,0.707,1.017,0.675,1.239,0.889,0.405,0.703,0.666,��쓌,3.9,��
2020/03/22,06:00,0.708,1.020,0.675,1.242,0.891,0.403,0.703,0.667,��,4.9,��
2020/03/22,06:10,0.708,1.017,0.674,1.240,0.888,0.404,0.704,0.666,��쓌,4.9,��
2020/03/22,06:20,0.708,1.018,0.675,1.242,0.887,0.403,0.704,0.666,��,6.5,��
2020/03/22,06:30,0.707,1.021,0.675,1.241,0.891,0.403,0.703,0.667,��,6.7,��
2020/03/22,06:40,0.706,1.018,0.674,1.239,0.891,0.403,0.705,0.666,��,7.3,��
2020/03/22,06:50,0.707,1.018,0.676,1.242,0.891,0.404,0.704,0.667,��쓌,6.2,��
2020/03/22,07:00,0.705,1.020,0.676,1.240,0.890,0.404,0.706,0.667,��쓌,6.5,��
2020/03/22,07:10,0.707,1.017,0.676,1.242,0.891,0.404,0.705,0.667,��,6.3,��
2020/03/22,07:20,0.707,1.018,0.676,1.240,0.892,0.403,0.704,0.667,��,6.1,��
2020/03/22,07:30,0.708,1.019,0.676,1.242,0.890,0.404,0.706,0.670,��,7.3,��
2020/03/22,07:40,0.708,1.020,0.678,1.242,0.891,0.405,0.705,0.668,��쓌,9.9,��
2020/03/22,07:50,0.707,1.022,0.677,1.241,0.890,0.405,0.705,0.669,��,9.3,��
2020/03/22,08:00,0.709,1.022,0.677,1.241,0.888,0.405,0.706,0.669,��,8.3,��
2020/03/22,08:10,0.709,1.021,0.676,1.242,0.893,0.403,0.707,0.668,��,6.5,��
2020/03/22,08:20,0.708,1.021,0.679,1.240,0.890,0.402,0.705,0.669,��,5.3,��
2020/03/22,08:30,0.709,1.017,0.678,1.241,0.891,0.403,0.705,0.669,��,5.2,��
2020/03/22,08:40,0.708,1.019,0.677,1.242,0.891,0.403,0.702,0.670,��,4.8,��
2020/03/22,08:50,0.709,1.017,0.677,1.243,0.891,0.403,0.704,0.669,��,4.7,��
2020/03/22,09:00,0.709,1.015,0.677,1.243,0.892,0.403,0.704,0.668,��쓌,6.2,��
2020/03/22,09:10,0.711,1.019,0.677,1.242,0.889,0.403,0.704,0.668,��쓌,4.8,��
2020/03/22,09:20,0.710,1.019,0.677,1.239,0.890,0.403,0.704,0.668,�쓌,2.6,��
2020/03/22,09:30,0.709,1.021,0.676,1.243,0.890,0.404,0.703,0.667,���쓌,1.5,��
2020/03/22,09:40,0.709,1.020,0.679,1.244,0.891,0.403,0.704,0.668,�k��,1.7,��
2020/03/22,09:50,0.711,1.021,0.677,1.243,0.894,0.403,0.704,0.668,�k�k��,3.7,��
2020/03/22,10:00,0.709,1.020,0.678,1.241,0.891,0.402,0.704,0.667,�k�k��,4.9,��
2020/03/22,10:10,0.707,1.020,0.678,1.243,0.891,0.404,0.704,0.667,�k,5.3,��
2020/03/22,10:20,0.708,1.020,0.676,1.243,0.891,0.403,0.703,0.665,�k,5.5,��
2020/03/22,10:30,0.706,1.020,0.676,1.244,0.887,0.404,0.705,0.665,�k�k��,7.3,��
2020/03/22,10:40,0.706,1.019,0.677,1.245,0.890,0.404,0.703,0.667,�k�k��,8.7,��
2020/03/22,10:50,0.708,1.020,0.676,1.243,0.890,0.404,0.704,0.665,�k,8.3,��
2020/03/22,11:00,0.709,1.019,0.676,1.245,0.890,0.404,0.705,0.664,�k,7.4,��
2020/03/22,11:10,0.707,1.021,0.673,1.243,0.889,0.404,0.704,0.665,�k,7.3,��
2020/03/22,11:20,0.708,1.019,0.675,1.246,0.892,0.403,0.704,0.667,�k,4.4,��
2020/03/22,11:30,0.708,1.022,0.675,1.243,0.891,0.404,0.704,0.665,�k,1.4,��
2020/03/22,11:40,0.706,1.020,0.677,1.246,0.890,0.404,0.705,0.667,��쓌,2.0,�L
2020/03/22,11:50,0.708,1.021,0.677,1.247,0.892,0.405,0.705,0.664,���쓌,2.0,�L
2020/03/22,12:00,0.706,1.021,0.674,1.245,0.892,0.404,0.705,0.668,�k��,5.4,��
2020/03/22,12:10,0.707,1.018,0.676,1.244,0.893,0.403,0.704,0.665,�k�k��,3.6,��
2020/03/22,12:20,0.709,1.022,0.676,1.243,0.892,0.403,0.705,0.667,�k��,4.5,��
2020/03/22,12:30,0.708,1.023,0.676,1.245,0.893,0.402,0.705,0.667,�k�k��,3.9,�L
2020/03/22,12:40,0.707,1.022,0.679,1.244,0.890,0.403,0.706,0.667,�k��,3.4,�L
2020/03/22,12:50,0.708,1.022,0.678,1.246,0.891,0.405,0.703,0.667,�k��,2.3,�L
2020/03/22,13:00,0.708,1.018,0.678,1.245,0.891,0.406,0.704,0.667,�k�k��,3.0,�L
2020/03/22,13:10,0.709,1.021,0.675,1.246,0.894,0.404,0.706,0.666,�k��,4.4,�L
2020/03/22,13:20,0.709,1.022,0.676,1.242,0.896,0.405,0.705,0.664,���k��,5.9,��
2020/03/22,13:30,0.710,1.022,0.678,1.245,0.894,0.406,0.704,0.665,���k��,3.8,��
2020/03/22,13:40,0.709,1.020,0.676,1.245,0.891,0.405,0.705,0.664,�k��,2.9,��
2020/03/22,13:50,0.707,1.021,0.677,1.247,0.892,0.405,0.704,0.667,���k��,3.4,��
2020/03/22,14:00,0.710,1.023,0.675,1.245,0.893,0.405,0.707,0.666,���k��,3.1,��
2020/03/22,14:10,0.707,1.022,0.676,1.245,0.893,0.404,0.704,0.666,�k��,3.8,��
2020/03/22,14:20,0.708,1.021,0.676,1.244,0.892,0.406,0.706,0.664,�k�k��,2.6,�L
2020/03/22,14:30,0.709,1.023,0.675,1.247,0.893,0.406,0.705,0.666,�k��,2.3,�L
2020/03/22,14:40,0.709,1.022,0.676,1.244,0.892,0.405,0.704,0.666,���k��,1.9,�L
2020/03/22,14:50,0.710,1.024,0.678,1.246,0.892,0.406,0.705,0.667,�k�k��,0.6,��
2020/03/22,15:00,0.708,1.026,0.675,1.245,0.894,0.405,0.704,0.667,-,CALM,��
2020/03/22,15:10,0.709,1.024,0.676,1.247,0.891,0.406,0.706,0.667,�k��,2.0,��
2020/03/22,15:20,0.707,1.024,0.675,1.245,0.888,0.405,0.706,0.665,���k��,2.9,��
2020/03/22,15:30,0.709,1.025,0.677,1.246,0.893,0.405,0.705,0.668,�k,1.1,��
2020/03/22,15:40,0.710,1.024,0.676,1.245,0.892,0.406,0.706,0.665,���k��,4.4,��
2020/03/22,15:50,0.711,1.023,0.678,1.244,0.893,0.408,0.706,0.666,���k��,12.7,��
2020/03/22,16:00,0.709,1.024,0.677,1.247,0.892,0.407,0.706,0.666,��,11.6,��
2020/03/22,16:10,0.708,1.023,0.677,1.245,0.892,0.405,0.707,0.667,���k��,9.9,��
2020/03/22,16:20,0.713,1.024,0.677,1.246,0.892,0.407,0.705,0.668,��,9.0,��
2020/03/22,16:30,0.709,1.021,0.677,1.244,0.891,0.406,0.707,0.667,��,11.9,��
2020/03/22,16:40,0.708,1.025,0.677,1.243,0.892,0.406,0.707,0.665,��,6.5,��
2020/03/22,16:50,0.709,1.020,0.676,1.243,0.894,0.405,0.707,0.666,���k��,8.7,��
2020/03/22,17:00,0.710,1.021,0.675,1.242,0.892,0.406,0.707,0.666,���k��,7.6,��
2020/03/22,17:10,0.709,1.023,0.676,1.246,0.893,0.405,0.705,0.667,��,7.1,��
2020/03/22,17:20,0.711,1.022,0.676,1.244,0.893,0.405,0.706,0.668,���k��,4.8,��
2020/03/22,17:30,0.712,1.024,0.676,1.247,0.892,0.406,0.704,0.667,���k��,3.9,��
2020/03/22,17:40,0.710,1.025,0.677,1.247,0.894,0.406,0.703,0.669,�k�k��,4.3,��
2020/03/22,17:50,0.708,1.024,0.676,1.245,0.893,0.408,0.703,0.666,�k��,4.3,��
2020/03/22,18:00,0.710,1.024,0.677,1.246,0.892,0.405,0.704,0.669,�k,3.2,��
2020/03/22,18:10,0.711,1.025,0.676,1.247,0.890,0.407,0.705,0.670,�k�k��,2.0,��
2020/03/22,18:20,0.710,1.023,0.678,1.246,0.894,0.405,0.705,0.669,�k�k��,2.3,��
2020/03/22,18:30,0.711,1.026,0.679,1.247,0.895,0.406,0.705,0.670,���k��,2.0,��
2020/03/22,18:40,0.709,1.023,0.679,1.246,0.896,0.407,0.705,0.669,���k��,2.5,��
2020/03/22,18:50,0.711,1.024,0.678,1.244,0.895,0.406,0.706,0.669,�k��,3.5,��
2020/03/22,19:00,0.711,1.023,0.679,1.245,0.895,0.405,0.706,0.670,�k�k��,3.9,��
2020/03/22,19:10,0.712,1.024,0.677,1.246,0.894,0.405,0.707,0.668,�k,4.4,��
2020/03/22,19:20,0.709,1.027,0.679,1.245,0.892,0.404,0.707,0.669,�k��,3.2,��
2020/03/22,19:30,0.710,1.023,0.680,1.245,0.893,0.405,0.706,0.668,�k�k��,1.5,��
2020/03/22,19:40,0.711,1.025,0.679,1.246,0.893,0.405,0.708,0.670,�k��,3.7,��
2020/03/22,19:50,0.711,1.023,0.678,1.245,0.892,0.404,0.705,0.668,�k�k��,4.6,��
2020/03/22,20:00,0.710,1.023,0.679,1.247,0.892,0.405,0.709,0.668,�k��,3.9,��
2020/03/22,20:10,0.711,1.023,0.678,1.245,0.893,0.405,0.708,0.668,�k��,5.2,��
2020/03/22,20:20,0.710,1.024,0.678,1.245,0.893,0.405,0.706,0.670,�k��,4.0,��
2020/03/22,20:30,0.708,1.021,0.679,1.246,0.895,0.404,0.706,0.669,�k��,5.0,��
2020/03/22,20:40,0.708,1.024,0.678,1.246,0.895,0.404,0.705,0.669,�k�k��,6.0,��
2020/03/22,20:50,0.710,1.022,0.678,1.246,0.894,0.406,0.706,0.671,�k�k��,4.6,��
2020/03/22,21:00,0.711,1.023,0.677,1.245,0.892,0.406,0.706,0.669,�k��,3.5,��
2020/03/22,21:10,0.709,1.023,0.675,1.244,0.894,0.403,0.706,0.669,�k��,3.9,��
2020/03/22,21:20,0.709,1.023,0.679,1.247,0.891,0.403,0.706,0.670,���k��,3.6,��
2020/03/22,21:30,0.709,1.023,0.678,1.246,0.890,0.404,0.707,0.668,�k��,4.0,��
2020/03/22,21:40,0.710,1.020,0.678,1.243,0.893,0.404,0.706,0.669,�k��,5.5,��
2020/03/22,21:50,0.709,1.024,0.677,1.247,0.893,0.404,0.707,0.669,�k�k��,5.9,��
2020/03/22,22:00,0.707,1.026,0.679,1.245,0.891,0.404,0.704,0.669,�k�k��,5.7,��
2020/03/22,22:10,0.709,1.021,0.677,1.245,0.893,0.404,0.706,0.668,�k�k��,3.9,��
2020/03/22,22:20,0.710,1.024,0.677,1.245,0.893,0.403,0.704,0.668,�k,4.7,��
2020/03/22,22:30,0.708,1.024,0.677,1.247,0.893,0.403,0.705,0.668,�k�k��,5.1,��
2020/03/22,22:40,0.709,1.021,0.678,1.244,0.891,0.403,0.706,0.668,�k�k��,4.2,��
2020/03/22,22:50,0.709,1.021,0.677,1.247,0.890,0.404,0.705,0.667,�k��,4.3,��
2020/03/22,23:00,0.710,1.024,0.679,1.247,0.894,0.403,0.708,0.668,�k�k��,4.6,��
2020/03/22,23:10,0.709,1.024,0.679,1.245,0.893,0.403,0.706,0.666,�k,5.2,��
2020/03/22,23:20,0.708,1.024,0.678,1.244,0.893,0.404,0.708,0.668,�k�k��,4.9,��
2020/03/22,23:30,0.709,1.022,0.678,1.246,0.892,0.405,0.706,0.669,�k�k��,6.8,��
2020/03/22,23:40,0.708,1.020,0.675,1.244,0.893,0.403,0.706,0.668,�k�k��,8.9,��
2020/03/22,23:50,0.708,1.022,0.676,1.247,0.893,0.403,0.707,0.666,�k�k��,6.9,��
